Date,TemperatureHighF,TemperatureAvgF,TemperatureLowF,DewpointHighF,DewpointAvgF,DewpointLowF,HumidityHigh,HumidityAvg,HumidityLow,PressureMaxIn,PressureMinIn,WindSpeedMaxMPH,WindSpeedAvgMPH,GustSpeedMaxMPH,PrecipitationSumIn
2013-1-1,36,17,3,-100,-100,-100,0,0,100,0.00,40.00,0,-999,0,0.00
2013-1-2,39,18,6,-100,-100,-100,0,0,100,0.00,40.00,0,-999,0,0.00
2013-1-3,41,22,4,-100,-100,-100,0,0,100,0.00,40.00,0,-999,0,0.00
2013-1-4,43,24,11,-100,-100,-100,0,0,100,0.00,40.00,0,-999,0,0.00
2013-1-5,40,29,19,-100,-100,-100,0,0,100,0.00,40.00,0,-999,0,0.00
2013-1-6,38,31,26,-100,-100,-100,0,0,100,0.00,40.00,0,-999,0,0.00
2013-1-7,43,34,27,-100,-100,-100,0,0,100,0.00,40.00,0,-999,0,0.00
2013-1-8,47,38,33,-100,-100,-100,0,0,100,0.00,40.00,0,-999,0,0.00
2013-1-9,44,36,26,-100,-100,-100,0,0,100,0.00,40.00,0,-999,0,0.01
2013-1-10,31,23,13,-100,-100,-100,0,0,100,0.00,40.00,0,-999,0,0.01
2013-1-11,30,19,3,-100,-100,-100,0,0,100,0.00,40.00,0,-999,0,0.01
2013-1-12,28,7,-9,-100,-100,-100,0,0,100,0.00,40.00,0,-999,0,0.00
2013-1-13,28,9,-7,-100,-100,-100,0,0,100,0.00,40.00,0,-999,0,0.00
2013-1-14,36,19,-2,-100,-100,-100,0,0,100,0.00,40.00,0,-999,0,0.00
2013-1-15,47,23,7,-100,-100,-100,0,0,100,0.00,40.00,0,-999,0,0.00
2013-1-16,50,28,12,-100,-100,-100,0,0,100,0.00,40.00,0,-999,0,0.00
2013-1-17,53,30,15,-100,-100,-100,0,0,100,0.00,40.00,0,-999,0,0.00
2013-1-18,54,31,15,-100,-100,-100,0,0,100,0.00,40.00,0,-999,0,0.00
2013-1-19,55,28,13,-100,-100,-100,0,0,100,0.00,40.00,0,-999,0,0.00
2013-1-20,53,29,12,-100,-100,-100,0,0,100,0.00,40.00,0,-999,0,0.00
2013-1-21,56,30,12,-100,-100,-100,0,0,100,0.00,40.00,0,-999,0,0.00
2013-1-22,52,36,20,-100,-100,-100,0,0,100,0.00,40.00,0,-999,0,0.00
2013-1-23,48,41,35,-100,-100,-100,0,0,100,0.00,40.00,0,-999,0,0.01
2013-1-24,44,39,34,-100,-100,-100,0,0,100,0.00,40.00,0,-999,0,0.01
2013-1-25,42,39,36,-100,-100,-100,0,0,100,0.00,40.00,0,-999,0,0.01
2013-1-26,38,34,25,-100,-100,-100,0,0,100,0.00,40.00,0,-999,0,0.01
2013-1-27,35,28,20,-100,-100,-100,0,0,100,0.00,40.00,0,-999,0,0.00
2013-1-28,36,32,28,-100,-100,-100,0,0,100,0.00,40.00,0,-999,0,0.00
2013-1-29,43,35,29,-100,-100,-100,0,0,100,0.00,40.00,0,-999,0,0.00
2013-1-30,47,36,29,-100,-100,-100,0,0,100,0.00,40.00,0,-999,0,0.00
2013-1-31,49,35,22,-100,-100,-100,0,0,100,0.00,40.00,0,-999,0,0.00
2013-2-1,54,35,21,-100,-100,-100,0,0,100,0.00,40.00,0,-999,0,0.00
2013-2-2,50,34,23,-100,-100,-100,0,0,100,0.00,40.00,0,-999,0,0.00
2013-2-3,54,36,21,-100,-100,-100,0,0,100,0.00,40.00,0,-999,0,0.00
2013-2-4,53,39,29,-100,-100,-100,0,0,100,0.00,40.00,0,-999,0,0.00
2013-2-5,48,36,29,-100,-100,-100,0,0,100,0.00,40.00,0,-999,0,0.00
2013-2-6,44,35,28,-100,-100,-100,0,0,100,0.00,40.00,0,-999,0,0.00
2013-2-7,40,31,20,-100,-100,-100,0,0,100,0.00,40.00,0,-999,0,0.01
2013-2-8,39,26,15,-100,-100,-100,0,0,100,0.00,40.00,0,-999,0,0.00
2013-2-9,43,28,13,-100,-100,-100,0,0,100,0.00,40.00,0,-999,0,0.00
2013-2-10,45,30,19,-100,-100,-100,0,0,100,0.00,40.00,0,-999,0,0.00
2013-2-11,51,32,16,-100,-100,-100,0,0,100,0.00,40.00,0,-999,0,0.00
2013-2-12,46,34,24,-100,-100,-100,0,0,100,0.00,40.00,0,-999,0,0.00
2013-2-13,50,37,26,-100,-100,-100,0,0,100,0.00,40.00,0,-999,0,0.00
2013-2-14,51,36,24,-100,-100,-100,0,0,100,0.00,40.00,0,-999,0,0.00
2013-2-15,54,38,27,-100,-100,-100,0,0,100,0.00,40.00,0,-999,0,0.00
2013-2-16,52,38,28,-100,-100,-100,0,0,100,0.00,40.00,0,-999,0,0.39
2013-2-17,45,30,19,-100,-100,-100,0,0,100,0.00,40.00,0,-999,0,0.00
2013-2-18,46,33,23,-100,-100,-100,0,0,100,0.00,40.00,0,-999,0,0.00
2013-2-19,34,28,18,-100,-100,-100,0,0,100,0.00,40.00,0,-999,0,0.01
2013-2-20,39,29,15,-100,-100,-100,0,0,100,0.00,40.00,0,-999,0,0.01
2013-2-21,37,29,19,-100,-100,-100,0,0,100,0.00,40.00,0,-999,0,0.00
2013-2-22,42,33,24,-100,-100,-100,0,0,100,0.00,40.00,0,-999,0,0.01
2013-2-23,36,27,20,-100,-100,-100,0,0,100,0.00,40.00,0,-999,0,0.01
2013-2-24,43,26,12,-100,-100,-100,0,0,100,0.00,40.00,0,-999,0,0.00
2013-2-25,40,34,30,-100,-100,-100,0,0,100,0.00,40.00,0,-999,0,0.00
2013-2-26,42,26,14,-100,-100,-100,0,0,100,0.00,40.00,0,-999,0,0.00
2013-2-27,47,34,20,-100,-100,-100,0,0,100,0.00,40.00,0,-999,0,0.00
2013-2-28,47,40,36,-100,-100,-100,0,0,100,0.00,40.00,0,-999,0,0.00
2013-3-1,57,42,32,-100,-100,-100,0,0,100,0.00,40.00,0,-999,0,0.00
2013-3-2,54,41,30,-100,-100,-100,0,0,100,0.00,40.00,0,-999,0,0.00
2013-3-3,48,38,29,-100,-100,-100,0,0,100,0.00,40.00,0,-999,0,0.00
2013-3-4,50,36,22,-100,-100,-100,0,0,100,0.00,40.00,0,-999,0,0.00
2013-3-5,44,39,34,-100,-100,-100,0,0,100,0.00,40.00,0,-999,0,0.00
2013-3-6,39,33,22,-100,-100,-100,0,0,100,0.00,40.00,0,-999,0,0.02
2013-3-7,41,31,21,-100,-100,-100,0,0,100,0.00,40.00,0,-999,0,0.01
2013-3-8,44,29,17,-100,-100,-100,0,0,100,0.00,40.00,0,-999,0,0.00
2013-3-9,51,33,19,-100,-100,-100,0,0,100,0.00,40.00,0,-999,0,0.00
2013-3-10,56,38,22,-100,-100,-100,0,0,100,0.00,40.00,0,-999,0,0.00
2013-3-11,57,40,30,-100,-100,-100,0,0,100,0.00,40.00,0,-999,0,0.00
2013-3-12,59,44,31,-100,-100,-100,0,0,100,0.00,40.00,0,-999,0,0.00
2013-3-13,62,44,32,-100,-100,-100,0,0,100,0.00,40.00,0,-999,0,0.00
2013-3-14,60,45,35,-100,-100,-100,0,0,100,0.00,40.00,0,-999,0,0.00
2013-3-15,57,42,32,-100,-100,-100,0,0,100,0.00,40.00,0,-999,0,0.00
2013-3-16,52,38,28,-100,-100,-100,0,0,100,0.00,40.00,0,-999,0,0.00
2013-3-17,47,37,30,-100,-100,-100,0,0,100,0.00,40.00,0,-999,0,0.00
2013-3-18,50,36,23,-100,-100,-100,0,0,100,0.00,40.00,0,-999,0,0.00
2013-3-19,54,42,32,-100,-100,-100,0,0,100,0.00,40.00,0,-999,0,0.01
2013-3-20,45,40,31,-100,-100,-100,0,0,100,0.00,40.00,0,-999,0,0.01
2013-3-21,41,33,26,-100,-100,-100,0,0,100,0.00,40.00,0,-999,0,0.00
2013-3-22,39,29,19,-100,-100,-100,0,0,100,0.00,40.00,0,-999,0,0.00
2013-3-23,47,30,16,-100,-100,-100,0,0,100,0.00,40.00,0,-999,0,0.00
2013-3-24,52,38,24,-100,-100,-100,0,0,100,0.00,40.00,0,-999,0,0.00
2013-3-25,56,44,30,-100,-100,-100,0,0,100,0.00,40.00,0,-999,0,0.00
2013-3-26,49,42,37,-100,-100,-100,0,0,100,0.00,40.00,0,-999,0,0.01
2013-3-27,53,43,34,-100,-100,-100,0,0,100,0.00,40.00,0,-999,0,0.00
2013-3-28,52,43,36,-100,-100,-100,0,0,100,0.00,40.00,0,-999,0,0.00
2013-3-29,59,44,33,-100,-100,-100,0,0,100,0.00,40.00,0,-999,0,0.00
2013-3-30,67,50,31,-100,-100,-100,0,0,100,0.00,40.00,0,-999,0,0.00
2013-3-31,56,46,35,-100,-100,-100,0,0,100,0.00,40.00,0,-999,0,0.01
2013-4-1,45,42,38,-100,-100,-100,0,0,100,0.00,40.00,0,-999,0,0.03
2013-4-2,52,42,34,-100,-100,-100,0,0,100,0.00,40.00,0,-999,0,0.01
2013-4-3,60,43,32,-100,-100,-100,0,0,100,0.00,40.00,0,-999,0,0.00
2013-4-4,53,46,41,-100,-100,-100,0,0,100,0.00,40.00,0,-999,0,0.01
2013-4-5,53,43,35,-100,-100,-100,0,0,100,0.00,40.00,0,-999,0,0.01
2013-4-6,50,41,36,-100,-100,-100,0,0,100,0.00,40.00,0,-999,0,0.01
2013-4-7,43,39,33,-100,-100,-100,0,0,100,0.00,40.00,0,-999,0,0.01
2013-4-8,47,35,30,-100,-100,-100,0,0,100,0.00,40.00,0,-999,0,0.01
2013-4-9,55,43,25,-100,-100,-100,0,0,100,0.00,40.00,0,-999,0,0.00
2013-4-10,56,43,32,-100,-100,-100,0,0,100,0.00,40.00,0,-999,0,0.00
2013-4-11,56,39,26,-100,-100,-100,0,0,100,0.00,40.00,0,-999,0,0.00
2013-4-12,61,43,27,-100,-100,-100,0,0,100,0.00,40.00,0,-999,0,0.00
2013-4-13,48,42,30,-100,-100,-100,0,0,100,0.00,40.00,0,-999,0,0.01
2013-4-14,42,32,21,-100,-100,-100,0,0,100,0.00,40.00,0,-999,0,0.00
2013-4-15,38,32,28,-100,-100,-100,0,0,100,0.00,40.00,0,-999,0,0.02
2013-4-16,42,32,20,-100,-100,-100,0,0,100,0.00,40.00,0,-999,0,0.01
2013-4-17,49,35,20,-100,-100,-100,0,0,100,0.00,40.00,0,-999,0,0.00
2013-4-18,58,43,28,-100,-100,-100,0,0,100,0.00,40.00,0,-999,0,0.00
2013-4-19,55,44,35,-100,-100,-100,0,0,100,0.00,40.00,0,-999,0,0.00
2013-4-20,60,44,27,-100,-100,-100,0,0,100,0.00,40.00,0,-999,0,0.00
2013-4-21,62,45,30,-100,-100,-100,0,0,100,0.00,40.00,0,-999,0,0.00
2013-4-22,54,39,29,-100,-100,-100,0,0,100,0.00,40.00,0,-999,0,0.00
2013-4-23,63,47,25,-100,-100,-100,0,0,100,0.00,40.00,0,-999,0,0.00
2013-4-24,63,54,36,-100,-100,-100,0,0,100,0.00,40.00,0,-999,0,0.48
2013-4-25,70,52,27,-100,-100,-100,0,0,100,0.00,40.00,0,-999,0,0.47
2013-4-26,72,55,33,-100,-100,-100,0,0,100,0.00,40.00,0,-999,0,0.00
2013-4-27,73,52,32,-100,-100,-100,0,0,100,0.00,40.00,0,-999,0,0.00
2013-4-28,65,50,35,-100,-100,-100,0,0,100,0.00,40.00,0,-999,0,0.00
2013-4-29,58,47,35,-100,-100,-100,0,0,100,0.00,40.00,0,-999,0,0.01
2013-4-30,54,38,22,-100,-100,-100,0,0,100,0.00,40.00,0,-999,0,0.00
2013-5-1,59,43,22,-100,-100,-100,0,0,100,0.00,40.00,0,-999,0,0.00
2013-5-2,70,50,27,-100,-100,-100,0,0,100,0.00,40.00,0,-999,0,0.00
2013-5-3,71,55,31,-100,-100,-100,0,0,100,0.00,40.00,0,-999,0,0.00
2013-5-4,62,52,39,-100,-100,-100,0,0,100,0.00,40.00,0,-999,0,0.01
2013-5-5,65,51,34,-100,-100,-100,0,0,100,0.00,40.00,0,-999,0,0.00
2013-5-6,70,52,37,-100,-100,-100,0,0,100,0.00,40.00,0,-999,0,0.00
2013-5-7,64,51,38,-100,-100,-100,0,0,100,0.00,40.00,0,-999,0,0.01
2013-5-8,63,48,39,-100,-100,-100,0,0,100,0.00,40.00,0,-999,0,0.01
2013-5-9,69,52,38,-100,-100,-100,0,0,100,0.00,40.00,0,-999,0,0.01
2013-5-10,76,53,39,-100,-100,-100,0,0,100,0.00,40.00,0,-999,0,0.00
2013-5-11,77,60,45,-100,-100,-100,0,0,100,0.00,40.00,0,-999,0,0.00
2013-5-12,77,60,44,-100,-100,-100,0,0,100,0.00,40.00,0,-999,0,0.00
2013-5-13,71,53,41,-100,-100,-100,0,0,100,0.00,40.00,0,-999,0,0.01
2013-5-14,71,52,33,-100,-100,-100,0,0,100,0.00,40.00,0,-999,0,0.00
2013-5-15,66,49,37,-100,-100,-100,0,0,100,0.00,40.00,0,-999,0,0.01
2013-5-16,53,46,36,-100,-100,-100,0,0,100,0.00,40.00,0,-999,0,0.01
2013-5-17,59,44,35,-100,-100,-100,0,0,100,0.00,40.00,0,-999,0,0.01
2013-5-18,57,42,29,-100,-100,-100,0,0,100,0.00,40.00,0,-999,0,0.00
2013-5-19,62,47,33,-100,-100,-100,0,0,100,0.00,40.00,0,-999,0,0.00
2013-5-20,70,52,31,-100,-100,-100,0,0,100,0.00,40.00,0,-999,0,0.00
2013-5-21,52,42,30,-100,-100,-100,0,0,100,0.00,40.00,0,-999,0,0.01
2013-5-22,47,35,21,-100,-100,-100,0,0,100,0.00,40.00,0,-999,0,0.01
2013-5-23,52,39,29,-100,-100,-100,0,0,100,0.00,40.00,0,-999,0,0.00
2013-5-24,60,45,29,-100,-100,-100,0,0,100,0.00,40.00,0,-999,0,0.00
2013-5-25,62,47,28,-100,-100,-100,0,0,100,0.00,40.00,0,-999,0,0.00
2013-5-26,58,48,38,-100,-100,-100,0,0,100,0.00,40.00,0,-999,0,0.01
2013-5-27,51,43,33,-100,-100,-100,0,0,100,0.00,40.00,0,-999,0,0.02
2013-5-28,59,48,38,-100,-100,-100,0,0,100,0.00,40.00,0,-999,0,0.01
2013-5-29,55,48,41,-100,-100,-100,0,0,100,0.00,40.00,0,-999,0,0.00
2013-5-30,62,46,30,-100,-100,-100,0,0,100,0.00,40.00,0,-999,0,0.00
2013-5-31,71,51,29,-100,-100,-100,0,0,100,0.00,40.00,0,-999,0,0.00
2013-6-1,74,57,36,-100,-100,-100,0,0,100,0.00,40.00,0,-999,0,0.00
2013-6-2,71,55,37,-100,-100,-100,0,0,100,0.00,40.00,0,-999,0,0.00
2013-6-3,76,56,34,-100,-100,-100,0,0,100,0.00,40.00,0,-999,0,0.00
2013-6-4,80,61,38,-100,-100,-100,0,0,100,0.00,40.00,0,-999,0,0.00
2013-6-5,82,64,41,-100,-100,-100,0,0,100,0.00,40.00,0,-999,0,0.00
2013-6-6,86,66,45,-100,-100,-100,0,0,100,0.00,40.00,0,-999,0,0.00
2013-6-7,83,63,47,-100,-100,-100,0,0,100,0.00,40.00,0,-999,0,0.00
2013-6-8,85,65,42,-100,-100,-100,0,0,100,0.00,40.00,0,-999,0,0.00
2013-6-9,85,66,46,-100,-100,-100,0,0,100,0.00,40.00,0,-999,0,0.00
2013-6-10,79,61,40,-100,-100,-100,0,0,100,0.00,40.00,0,-999,0,0.00
2013-6-11,67,54,39,-100,-100,-100,0,0,100,0.00,40.00,0,-999,0,0.01
2013-6-12,63,50,30,-100,-100,-100,0,0,100,0.00,40.00,0,-999,0,0.01
2013-6-13,54,42,30,-100,-100,-100,0,0,100,0.00,40.00,0,-999,0,0.01
2013-6-14,69,49,28,-100,-100,-100,0,0,100,0.00,40.00,0,-999,0,0.00
2013-6-15,75,59,33,-100,-100,-100,0,0,100,0.00,40.00,0,-999,0,0.00
2013-6-16,75,60,45,-100,-100,-100,0,0,100,0.00,40.00,0,-999,0,0.00
2013-6-17,73,59,39,-100,-100,-100,0,0,100,0.00,40.00,0,-999,0,0.00
2013-6-18,63,50,41,-100,-100,-100,0,0,100,0.00,40.00,0,-999,0,0.01
2013-6-19,53,44,33,-100,-100,-100,0,0,100,0.00,40.00,0,-999,0,0.01
2013-6-20,52,39,30,-100,-100,-100,0,0,100,0.00,40.00,0,-999,0,0.00
2013-6-22,72,62,38,-100,-100,-100,0,0,100,0.00,40.00,0,-999,0,0.00
2013-6-23,61,54,49,-100,-100,-100,0,0,100,0.00,40.00,0,-999,0,0.01
2013-6-24,53,49,46,-100,-100,-100,0,0,100,0.00,40.00,0,-999,0,0.01
2013-6-25,59,52,46,-100,-100,-100,0,0,100,0.00,40.00,0,-999,0,0.01
2013-6-26,65,57,50,-100,-100,-100,0,0,100,0.00,40.00,0,-999,0,0.00
2013-6-27,81,63,47,-100,-100,-100,0,0,100,0.00,40.00,0,-999,0,0.00
2013-6-28,87,72,49,-100,-100,-100,0,0,100,0.00,40.00,0,-999,0,0.00
2013-6-29,85,70,52,-100,-100,-100,0,0,100,0.00,40.00,0,-999,0,0.00
2013-6-30,92,74,50,-100,-100,-100,0,0,100,0.00,40.00,0,-999,0,0.00
2013-7-1,91,72,56,-100,-100,-100,0,0,100,0.00,40.00,0,-999,0,0.00
2013-7-2,94,76,55,-100,-100,-100,0,0,100,0.00,40.00,0,-999,0,0.00
2013-7-3,92,73,56,-100,-100,-100,0,0,100,0.00,40.00,0,-999,0,0.00
2013-7-4,83,69,50,-100,-100,-100,0,0,100,0.00,40.00,0,-999,0,0.01
2013-7-5,81,64,44,-100,-100,-100,0,0,100,0.00,40.00,0,-999,0,0.01
2013-7-6,81,60,41,-100,-100,-100,0,0,100,0.00,40.00,0,-999,0,0.00
2013-7-7,83,66,45,-100,-100,-100,0,0,100,0.00,40.00,0,-999,0,0.00
2013-7-8,83,63,47,-100,-100,-100,0,0,100,0.00,40.00,0,-999,0,0.00
2013-7-9,86,67,45,-100,-100,-100,0,0,100,0.00,40.00,0,-999,0,0.00
2013-7-10,84,66,44,-100,-100,-100,0,0,100,0.00,40.00,0,-999,0,0.00
2013-7-11,81,63,46,-100,-100,-100,0,0,100,0.00,40.00,0,-999,0,0.01
2013-7-12,78,60,42,-100,-100,-100,0,0,100,0.00,40.00,0,-999,0,0.00
2013-7-13,79,62,41,-100,-100,-100,0,0,100,0.00,40.00,0,-999,0,0.00
2013-7-14,83,66,42,-100,-100,-100,0,0,100,0.00,40.00,0,-999,0,0.00
2013-7-15,85,63,46,-100,-100,-100,0,0,100,0.00,40.00,0,-999,0,0.00
2013-7-16,82,65,47,-100,-100,-100,0,0,100,0.00,40.00,0,-999,0,0.01
2013-7-17,82,64,44,-100,-100,-100,0,0,100,0.00,40.00,0,-999,0,0.00
2013-7-18,89,74,45,-100,-100,-100,0,0,100,0.00,40.00,0,-999,0,0.00
2013-7-19,93,69,47,-100,-100,-100,0,0,100,0.00,40.00,0,-999,0,0.00
2013-7-20,92,70,47,-100,-100,-100,0,0,100,0.00,40.00,0,-999,0,0.00
2013-7-21,92,71,47,-100,-100,-100,0,0,100,0.00,40.00,0,-999,0,0.00
2013-7-22,92,69,47,-100,-100,-100,0,0,100,0.00,40.00,0,-999,0,0.00
2013-7-23,92,73,49,-100,-100,-100,0,0,100,0.00,40.00,0,-999,0,0.00
2013-7-24,83,70,51,-100,-100,-100,0,0,100,0.00,40.00,0,-999,0,0.01
2013-7-25,86,71,53,-100,-100,-100,0,0,100,0.00,40.00,0,-999,0,0.00
2013-7-26,90,68,53,-100,-100,-100,0,0,100,0.00,40.00,0,-999,0,0.00
2013-7-27,82,65,48,-100,-100,-100,0,0,100,0.00,40.00,0,-999,0,0.01
2013-7-28,81,62,40,-100,-100,-100,0,0,100,0.00,40.00,0,-999,0,0.00
2013-7-29,80,60,41,-100,-100,-100,0,0,100,0.00,40.00,0,-999,0,0.00
2013-7-30,81,63,42,-100,-100,-100,0,0,100,0.00,40.00,0,-999,0,0.00
2013-7-31,79,65,49,-100,-100,-100,0,0,100,0.00,40.00,0,-999,0,0.00
2013-8-1,72,60,44,-100,-100,-100,0,0,100,0.00,40.00,0,-999,0,0.01
2013-8-2,72,56,33,-100,-100,-100,0,0,100,0.00,40.00,0,-999,0,0.00
2013-8-3,78,60,39,-100,-100,-100,0,0,100,0.00,40.00,0,-999,0,0.00
2013-8-4,83,68,42,-100,-100,-100,0,0,100,0.00,40.00,0,-999,0,0.00
2013-8-5,84,66,47,-100,-100,-100,0,0,100,0.00,40.00,0,-999,0,0.00
2013-8-6,86,69,45,-100,-100,-100,0,0,100,0.00,40.00,0,-999,0,0.00
2013-8-7,71,60,50,-100,-100,-100,0,0,100,0.00,40.00,0,-999,0,0.01
2013-8-8,68,55,42,-100,-100,-100,0,0,100,0.00,40.00,0,-999,0,0.01
2013-8-9,64,53,42,-100,-100,-100,0,0,100,0.00,40.00,0,-999,0,0.01
2013-8-10,69,57,39,-100,-100,-100,0,0,100,0.00,40.00,0,-999,0,0.01
2013-8-11,76,58,40,-100,-100,-100,0,0,100,0.00,40.00,0,-999,0,0.00
2013-8-12,79,66,45,-100,-100,-100,0,0,100,0.00,40.00,0,-999,0,0.00
2013-8-13,82,66,44,-100,-100,-100,0,0,100,0.00,40.00,0,-999,0,0.00
2013-8-14,81,62,47,-100,-100,-100,0,0,100,0.00,40.00,0,-999,0,0.00
2013-8-15,84,65,44,-100,-100,-100,0,0,100,0.00,40.00,0,-999,0,0.00
2013-8-16,80,61,46,-100,-100,-100,0,0,100,0.00,40.00,0,-999,0,0.00
2013-8-25,67,56,48,-100,-100,-100,0,0,100,0.00,40.00,0,-999,0,0.01
2013-8-26,71,56,39,-100,-100,-100,0,0,100,0.00,40.00,0,-999,0,0.00
2013-8-27,71,50,38,-100,-100,-100,0,0,100,0.00,40.00,0,-999,0,0.00
2013-8-28,76,66,52,-100,-100,-100,0,0,100,0.00,40.00,0,-999,0,0.00
2013-8-29,75,60,48,-100,-100,-100,0,0,100,0.00,40.00,0,-999,0,0.00
2013-8-30,80,63,45,-100,-100,-100,0,0,100,0.00,40.00,0,-999,0,0.00
2013-8-31,84,63,42,-100,-100,-100,0,0,100,0.00,40.00,0,-999,0,0.00
2013-9-1,83,66,45,-100,-100,-100,0,0,100,0.00,40.00,0,-999,0,0.00
2013-9-2,76,62,50,-100,-100,-100,0,0,100,0.00,40.00,0,-999,0,0.00
2013-9-3,76,55,38,-100,-100,-100,0,0,100,0.00,40.00,0,-999,0,0.00
2013-9-4,77,56,37,-100,-100,-100,0,0,100,0.00,40.00,0,-999,0,0.00
2013-9-5,68,55,41,-100,-100,-100,0,0,100,0.00,40.00,0,-999,0,0.01
2013-9-6,70,51,34,-100,-100,-100,0,0,100,0.00,40.00,0,-999,0,0.00
2013-9-12,82,60,48,-100,-100,-100,0,0,100,0.00,40.00,0,-999,0,0.00
2013-9-13,82,67,49,-100,-100,-100,0,0,100,0.00,40.00,0,-999,0,0.00
2013-9-14,85,62,43,-100,-100,-100,0,0,100,0.00,40.00,0,-999,0,0.00
2013-9-15,79,63,45,-100,-100,-100,0,0,100,0.00,40.00,0,-999,0,0.00
2013-9-16,68,53,40,-100,-100,-100,0,0,100,0.00,40.00,0,-999,0,0.00
2013-9-17,50,45,39,-100,-100,-100,0,0,100,0.00,40.00,0,-999,0,0.02
2013-9-18,43,39,36,-100,-100,-100,0,0,100,0.00,40.00,0,-999,0,0.02
2013-9-19,73,50,30,-100,-100,-100,0,0,100,0.00,40.00,0,-999,0,0.00
2013-9-20,71,56,33,-100,-100,-100,0,0,100,0.00,40.00,0,-999,0,0.00
2013-9-21,50,43,36,-100,-100,-100,0,0,100,0.00,40.00,0,-999,0,0.03
2013-9-22,50,44,35,-100,-100,-100,0,0,100,0.00,40.00,0,-999,0,0.01
2013-9-23,62,50,44,-100,-100,-100,0,0,100,0.00,40.00,0,-999,0,0.00
2013-9-24,49,44,36,-100,-100,-100,0,0,100,0.00,40.00,0,-999,0,0.01
2013-9-25,41,36,32,-100,-100,-100,0,0,100,0.00,40.00,0,-999,0,0.01
2013-9-26,49,39,30,-100,-100,-100,0,0,100,0.00,40.00,0,-999,0,0.00
2013-9-27,56,43,28,-100,-100,-100,0,0,100,0.00,40.00,0,-999,0,0.00
2013-10-2,50,38,24,-100,-100,-100,0,0,100,0.00,40.00,0,-999,0,0.00
2013-10-3,48,40,29,-100,-100,-100,0,0,100,0.00,40.00,0,-999,0,0.00
2013-10-4,57,45,25,-100,-100,-100,0,0,100,0.00,40.00,0,-999,0,0.00
2013-10-5,67,50,26,-100,-100,-100,0,0,100,0.00,40.00,0,-999,0,0.00
2013-10-6,69,50,29,-100,-100,-100,0,0,100,0.00,40.00,0,-999,0,0.00
2013-10-7,57,42,31,-100,-100,-100,0,0,100,0.00,40.00,0,-999,0,0.00
2013-10-8,50,34,27,-100,-100,-100,0,0,100,0.00,40.00,0,-999,0,0.00
2013-10-9,45,34,29,-100,-100,-100,0,0,100,0.00,40.00,0,-999,0,0.00
2013-10-10,55,40,31,-100,-100,-100,0,0,100,0.00,40.00,0,-999,0,0.00
2013-10-11,53,40,24,-100,-100,-100,0,0,100,0.00,40.00,0,-999,0,0.00
2013-10-12,48,36,27,-100,-100,-100,0,0,100,0.00,40.00,0,-999,0,0.01
2013-10-13,49,38,29,-100,-100,-100,0,0,100,0.00,40.00,0,-999,0,0.00
2013-10-20,69,53,36,-100,-100,-100,0,0,100,0.00,40.00,0,-999,0,0.00
2013-10-21,47,43,37,-100,-100,-100,0,0,100,0.00,40.00,0,-999,0,0.00
2013-10-22,65,49,32,-100,-100,-100,0,0,100,0.00,40.00,0,-999,0,0.00
2013-10-23,42,34,29,-100,-100,-100,0,0,100,0.00,40.00,0,-999,0,0.00
2013-10-24,67,62,55,-100,-100,-100,0,0,100,0.00,40.00,0,-999,0,0.00
2013-10-25,48,34,29,-100,-100,-100,0,0,100,0.00,40.00,0,-999,0,0.00
2013-10-26,64,44,28,-100,-100,-100,0,0,100,0.00,40.00,0,-999,0,0.00
2013-11-12,57,52,47,-100,-100,-100,0,0,100,0.00,40.00,0,-999,0,0.00
2013-11-13,54,54,54,-100,-100,-100,0,0,100,0.00,40.00,0,-999,0,0.00
2013-11-14,47,34,25,-100,-100,-100,0,0,100,0.00,40.00,0,-999,0,0.00
2013-11-15,42,40,37,-100,-100,-100,0,0,100,0.00,40.00,0,-999,0,0.00
2013-11-16,34,33,30,-100,-100,-100,0,0,100,0.00,40.00,0,-999,0,0.00
2013-11-17,48,48,48,-100,-100,-100,0,0,100,0.00,40.00,0,-999,0,0.00
2013-11-18,40,35,31,-100,-100,-100,0,0,100,0.00,40.00,0,-999,0,0.00
2013-11-19,44,40,37,-100,-100,-100,0,0,100,0.00,40.00,0,-999,0,0.01
2013-11-20,40,31,23,-100,-100,-100,0,0,100,0.00,40.00,0,-999,0,0.01
2013-11-21,38,35,28,-100,-100,-100,0,0,100,0.00,40.00,0,-999,0,0.00
2013-11-22,46,31,10,-100,-100,-100,0,0,100,0.00,40.00,0,-999,0,0.00
2013-11-23,48,32,21,-100,-100,-100,0,0,100,0.00,40.00,0,-999,0,0.00
2013-11-24,53,35,17,-100,-100,-100,0,0,100,0.00,40.00,0,-999,0,0.00
2013-11-25,55,32,19,-100,-100,-100,0,0,100,0.00,40.00,0,-999,0,0.00
2013-11-26,49,33,23,-100,-100,-100,0,0,100,0.00,40.00,0,-999,0,0.00
2013-11-27,49,34,26,-100,-100,-100,0,0,100,0.00,40.00,0,-999,0,0.00
2013-11-28,52,33,23,-100,-100,-100,0,0,100,0.00,40.00,0,-999,0,0.00
2013-11-29,52,36,22,-100,-100,-100,0,0,100,0.00,40.00,0,-999,0,0.00
2013-11-30,49,39,31,-100,-100,-100,0,0,100,0.00,40.00,0,-999,0,0.00
2013-12-1,49,36,32,-100,-100,-100,0,0,100,0.00,40.00,0,-999,0,0.00
2013-12-2,41,38,30,-100,-100,-100,0,0,100,0.00,40.00,0,-999,0,0.01
2013-12-3,27,17,8,-100,-100,-100,0,0,100,0.00,40.00,0,-999,0,0.00
2013-12-4,23,11,-1,-100,-100,-100,0,0,100,0.00,40.00,0,-999,0,0.00
2013-12-11,41,25,7,-100,-100,-100,0,0,100,0.00,40.00,0,-999,0,0.00
2013-12-12,42,23,13,-100,-100,-100,0,0,100,0.00,40.00,0,-999,0,0.00
2013-12-13,42,37,26,-100,-100,-100,0,0,100,0.00,40.00,0,-999,0,0.00
2013-12-14,46,31,16,-100,-100,-100,0,0,100,0.00,40.00,0,-999,0,0.00
2013-12-15,49,34,19,-100,-100,-100,0,0,100,0.00,40.00,0,-999,0,0.00
2013-12-16,54,34,18,-100,-100,-100,0,0,100,0.00,40.00,0,-999,0,0.00
2013-12-17,54,32,22,-100,-100,-100,0,0,100,0.00,40.00,0,-999,0,0.00
2013-12-18,44,32,24,-100,-100,-100,0,0,100,0.00,40.00,0,-999,0,0.00
2013-12-19,31,22,12,-100,-100,-100,0,0,100,0.00,40.00,0,-999,0,0.00
2013-12-20,32,20,14,-100,-100,-100,0,0,100,0.00,40.00,0,-999,0,0.00
2013-12-21,47,35,28,-100,-100,-100,0,0,100,0.00,40.00,0,-999,0,0.01
2013-12-22,49,39,28,-100,-100,-100,0,0,100,0.00,40.00,0,-999,0,0.00
2013-12-23,49,40,30,-100,-100,-100,0,0,100,0.00,40.00,0,-999,0,0.00
2013-12-24,43,30,22,-100,-100,-100,0,0,100,0.00,40.00,0,-999,0,0.00
2013-12-25,50,31,16,-100,-100,-100,0,0,100,0.00,40.00,0,-999,0,0.00
2013-12-26,55,33,21,-100,-100,-100,0,0,100,0.00,40.00,0,-999,0,0.00
2013-12-27,21,21,21,-100,-100,-100,0,0,100,0.00,40.00,0,-999,0,0.00
2013-12-28,43,41,39,-100,-100,-100,0,0,100,0.00,40.00,0,-999,0,0.00
2013-12-29,20,19,18,-100,-100,-100,0,0,100,0.00,40.00,0,-999,0,0.00
2013-12-30,32,26,21,-100,-100,-100,0,0,100,0.00,40.00,0,-999,0,0.00
2013-12-31,47,36,28,-100,-100,-100,0,0,100,0.00,40.00,0,-999,0,0.00
2014-1-1,49,31,23,-100,-100,-100,0,0,100,0.00,40.00,0,-999,0,0.00
2014-1-2,52,33,24,-100,-100,-100,0,0,100,0.00,40.00,0,-999,0,0.00